Theta_e
302 300 299 299 299 299 301 301 301 301 301 301 301 301 303 305 309 312 314 312 309 306 302 299 298 297 296 296 295 295 295 296 296 297 297 299 304 312 317 318 319 320 321 321 321 321 321 320 320 320 320 319 318 318 317 317 316 316 316 316 316 314 314 314 313 313 314 313 313 313 313 312 312 313 313 313 313 313 313 313 313 313 313 313 314
302 301 300 298 298 298 298 299 299 299 300 299 300 302 302 304 308 310 308 304 300 299 298 296 296 295 295 294 294 294 294 294 294 294 295 296 299 304 315 315 316 316 317 317 319 319 318 318 318 319 320 319 318 318 316 315 316 315 315 315 315 315 314 314 312 312 312 312 313 312 311 312 312 312 312 312 312 313 312 312 312 312 312 312 312
301 300 299 298 297 297 296 297 297 298 297 298 299 300 300 303 306 306 302 299 297 297 296 295 294 294 294 294 294 294 293 293 293 293 293 294 295 298 304 312 313 314 315 316 317 317 317 317 316 318 317 317 317 317 316 316 315 314 315 315 314 314 313 313 312 312 313 312 312 311 311 311 311 311 311 312 312 313 312 312 312 312 312 312 311
301 299 298 297 296 296 296 296 295 295 296 297 297 298 299 299 301 301 299 297 296 295 295 293 293 293 293 293 293 292 292 292 291 291 291 292 293 294 297 301 309 310 311 312 313 313 313 314 315 316 316 316 316 315 315 315 315 313 314 313 314 314 313 312 312 312 312 312 311 310 310 311 311 311 311 311 311 311 311 310 311 312 311 311 310
301 300 299 296 296 295 295 295 295 294 295 295 296 297 299 299 298 298 296 295 294 293 293 292 291 291 292 291 291 291 291 290 290 290 290 290 291 292 293 295 296 304 307 307 308 309 310 311 312 312 313 314 314 314 313 314 314 314 312 312 314 314 313 312 311 311 311 311 311 310 310 310 310 310 310 310 310 311 310 310 311 311 311 310 311
300 299 298 296 295 295 294 294 294 293 293 294 295 296 298 298 297 296 296 293 291 291 291 290 291 291 290 290 290 289 289 289 289 289 289 289 289 290 290 291 291 292 296 304 304 305 306 308 309 310 310 311 312 312 312 312 313 313 313 313 313 313 312 311 310 310 310 310 310 309 309 309 309 309 310 310 310 310 310 310 310 310 309 309 310
300 298 297 296 295 294 293 293 294 293 292 292 294 294 296 296 295 293 292 292 291 291 290 289 289 289 289 290 288 288 288 288 288 288 288 288 288 288 288 289 289 289 290 291 300 302 303 304 305 306 307 307 308 309 310 310 311 312 312 312 312 312 312 311 309 309 309 309 309 309 309 309 309 309 309 309 309 309 309 310 310 310 309 309 309
299 298 296 295 294 294 294 294 293 293 292 292 293 293 294 294 294 293 291 290 290 289 289 288 288 288 288 288 288 289 287 287 287 287 287 287 287 287 287 288 288 288 288 286 288 295 300 301 302 302 302 304 305 306 307 308 309 310 310 311 311 311 310 310 309 308 308 308 308 308 308 308 308 308 308 308 308 309 309 309 309 309 309 309 309
297 298 296 294 294 294 295 295 294 292 292 291 292 293 293 293 292 293 291 289 289 288 288 288 288 288 288 288 288 288 287 287 287 286 287 286 286 286 286 286 288 289 285 284 284 284 292 296 298 299 299 299 301 304 304 306 307 308 308 309 310 310 310 309 308 307 307 308 308 307 307 307 307 308 308 308 308 308 308 309 308 308 308 308 308
296 296 295 294 293 293 293 293 293 292 291 291 290 291 292 293 291 291 291 289 288 287 287 288 288 287 287 287 287 287 287 287 288 289 286 285 285 284 285 285 286 285 285 284 283 283 282 286 290 292 295 296 297 300 302 303 305 306 307 308 308 309 308 308 308 307 307 307 307 307 307 307 307 307 307 307 307 308 308 308 308 307 307 307 308
295 295 294 293 293 292 292 292 292 291 291 290 290 291 292 292 291 290 290 289 288 288 287 287 287 287 286 286 286 286 287 288 287 286 285 286 286 286 284 284 284 285 284 283 283 282 282 281 280 280 284 293 295 296 298 301 302 304 306 307 307 308 307 307 307 306 306 306 306 306 306 306 306 306 306 307 307 307 307 307 307 307 307 307 307
294 294 293 293 292 291 291 292 292 291 291 290 290 291 291 291 290 290 289 289 289 288 288 287 286 286 286 285 286 286 285 286 285 285 285 285 285 285 284 284 283 284 284 283 282 281 281 280 283 280 281 285 291 292 294 297 299 301 304 305 306 306 307 307 306 306 305 305 305 305 305 306 306 306 306 306 306 306 306 306 306 306 307 306 307
293 293 292 293 291 290 290 291 292 291 291 290 291 291 292 292 291 291 289 287 287 288 287 287 285 284 285 284 284 285 286 285 284 284 284 284 285 284 284 283 282 282 283 283 282 281 280 280 280 279 280 279 281 287 291 293 296 298 301 303 304 305 306 306 306 306 305 305 304 304 305 305 305 305 305 305 305 305 306 306 306 306 306 307 306
293 292 291 291 290 290 290 290 290 290 290 291 291 293 292 291 291 289 289 288 286 287 288 288 286 284 282 282 282 283 285 283 283 283 284 284 285 284 284 283 282 282 282 281 281 280 280 280 279 279 279 279 279 280 282 285 290 296 299 300 302 304 305 305 306 305 304 304 303 304 304 304 304 304 304 304 305 305 305 305 305 305 306 305 305
292 292 291 291 290 290 290 290 290 292 290 290 290 291 291 291 290 289 287 287 287 288 288 289 286 286 285 283 281 281 284 283 283 282 282 283 284 284 284 283 283 283 282 280 280 279 280 279 279 279 278 278 278 279 280 285 290 295 297 298 299 302 303 304 305 305 304 303 303 304 303 303 303 303 304 303 304 304 304 304 304 304 304 304 305
293 293 290 290 290 289 290 290 290 291 290 290 289 290 290 290 289 289 288 286 286 286 288 288 287 287 285 286 282 283 281 280 280 283 283 282 283 283 283 282 282 283 282 280 280 279 279 279 279 278 278 278 278 278 279 282 288 292 295 297 297 300 302 303 304 304 303 303 303 303 302 302 302 303 303 303 303 303 303 303 303 304 304 304 304
290 290 290 289 289 289 289 289 289 290 291 290 290 290 290 289 289 289 289 288 285 285 287 288 288 286 288 284 282 283 284 281 281 281 282 282 282 282 283 282 282 282 281 281 281 280 279 278 278 278 278 278 277 278 278 280 281 285 287 295 298 299 300 302 303 303 303 302 302 302 301 301 302 302 302 302 302 303 302 302 303 303 303 304 304
289 289 289 289 289 289 289 289 289 290 290 289 289 289 289 290 290 289 289 289 288 286 285 286 286 286 285 286 287 287 282 281 282 278 280 281 281 282 281 282 282 281 281 280 280 280 280 278 277 278 278 277 277 277 277 279 283 282 286 289 296 297 299 300 302 302 302 302 301 301 300 300 301 301 301 301 302 301 301 301 302 302 303 303 304
290 290 290 289 289 289 289 289 289 289 289 288 287 287 288 288 289 288 287 289 288 287 285 285 285 284 284 285 285 286 286 283 281 279 277 280 281 280 280 281 281 281 281 280 280 279 279 279 277 277 277 277 277 277 277 278 282 285 291 293 294 296 297 299 300 302 302 302 301 300 300 300 300 301 301 301 300 300 301 301 301 301 302 302 302
290 291 290 290 290 291 290 290 289 290 290 289 288 288 289 289 289 288 288 289 288 287 286 285 285 283 285 284 284 284 283 284 285 283 282 277 277 279 281 281 281 281 281 280 280 279 279 279 278 277 277 277 277 277 277 278 278 280 284 290 293 294 296 298 299 301 301 301 300 299 299 299 300 300 299 299 299 300 300 301 300 301 301 302 302
291 290 291 291 291 290 290 290 290 289 289 289 289 289 290 289 289 290 290 289 288 288 286 285 284 282 282 282 282 281 281 282 282 282 279 277 276 275 276 280 280 280 280 280 280 280 279 279 279 278 278 277 277 277 277 277 278 280 284 288 290 292 294 296 298 300 300 299 298 298 298 298 299 299 299 299 299 300 300 300 300 300 300 300 301
290 290 290 290 290 290 290 290 290 290 290 289 288 288 289 288 288 288 287 286 286 287 286 284 284 284 284 283 282 281 281 280 279 278 278 278 276 275 276 275 275 277 278 278 278 278 278 278 277 277 277 276 277 277 277 277 279 281 281 285 287 289 292 295 297 298 298 298 297 297 297 297 298 298 298 298 299 299 299 299 299 299 299 299 299
289 289 289 289 289 290 289 289 290 289 289 288 288 288 287 286 285 285 285 284 284 284 284 283 283 282 282 282 282 282 280 279 278 279 278 277 277 276 275 276 275 275 277 280 279 278 278 277 277 277 277 276 276 277 276 276 280 282 281 283 286 289 291 293 295 297 297 297 297 296 296 296 297 297 297 297 298 298 298 298 298 297 297 298 295
287 287 288 288 287 288 288 288 287 287 287 288 287 287 286 285 285 284 284 284 284 283 282 281 281 281 280 281 281 281 280 279 279 279 278 277 276 275 275 276 276 277 279 277 278 277 277 276 277 276 276 276 276 277 277 276 278 283 279 281 283 286 288 291 294 295 295 296 296 295 295 296 297 297 296 296 297 297 297 296 295 295 295 297 296
286 285 287 287 287 286 286 286 286 287 287 287 287 287 287 286 284 284 283 283 283 282 281 281 281 280 279 280 279 279 278 279 279 277 276 277 277 275 276 276 274 275 276 275 275 277 277 276 276 276 275 276 276 276 276 276 277 281 280 279 282 283 286 289 291 293 294 295 295 294 294 295 296 296 295 295 295 295 295 295 295 295 295 295 294
285 285 286 287 287 287 287 287 287 287 287 287 286 285 284 283 283 282 282 282 282 281 280 280 280 280 280 278 278 278 277 278 277 277 277 276 275 275 274 275 275 274 276 274 276 274 275 276 276 275 275 275 275 275 275 275 276 280 280 277 278 282 285 288 289 290 292 292 293 293 293 294 295 295 295 293 294 293 294 294 293 293 293 293 293
285 285 286 286 286 286 286 286 286 286 286 285 285 284 284 283 282 282 282 282 281 281 280 280 279 279 278 278 277 277 276 276 276 276 276 276 275 275 274 274 274 273 273 274 273 273 273 275 275 275 275 275 274 274 275 275 277 280 279 275 275 279 282 285 285 287 289 290 291 292 293 293 294 294 293 293 292 292 292 292 292 291 291 291 292
285 285 285 285 285 285 285 285 285 284 284 284 284 283 283 282 282 281 281 282 280 280 279 279 278 278 278 277 276 275 276 276 276 275 275 276 275 275 276 274 272 271 272 272 273 273 274 273 275 274 274 274 275 274 277 275 276 279 278 275 274 275 281 282 283 283 284 286 288 290 291 292 293 293 293 292 291 291 291 290 291 290 291 291 291
284 284 283 284 284 284 283 283 283 283 283 283 283 283 283 282 281 281 280 280 280 279 279 278 278 277 277 276 276 275 275 276 275 275 275 275 275 274 274 273 274 272 272 270 272 271 273 272 271 274 274 274 274 275 274 273 277 278 275 275 274 274 279 280 281 281 282 283 285 288 290 291 291 291 291 291 291 291 290 290 290 291 291 291 291
284 284 283 283 283 284 283 283 283 283 283 283 282 282 282 281 281 280 280 280 279 279 278 278 277 277 277 276 275 275 275 274 274 274 274 274 274 274 275 275 275 273 273 270 270 272 272 273 272 272 273 273 275 275 275 274 278 277 275 274 273 275 279 278 279 280 281 281 282 284 287 288 289 290 290 290 290 290 290 290 290 290 290 290 289
283 282 282 282 282 282 282 282 282 282 282 282 282 281 281 280 280 279 280 279 278 277 277 277 277 276 275 274 274 274 274 274 274 274 275 275 274 274 273 274 273 273 273 272 268 272 271 271 272 273 273 273 274 274 275 275 277 277 274 273 273 277 276 275 277 278 278 279 280 282 283 285 287 287 288 288 289 289 289 289 289 288 288 287 286
282 282 282 281 282 281 281 281 281 281 281 281 281 280 280 280 279 279 279 278 278 277 277 277 277 276 275 274 274 273 273 273 273 274 273 274 274 273 273 273 272 273 273 271 271 271 272 271 272 273 273 273 273 273 273 275 276 277 273 273 274 275 272 271 274 275 276 277 278 280 280 281 283 284 286 286 286 287 287 287 287 286 285 284 283
281 281 281 281 281 281 281 281 281 281 280 280 280 280 279 279 278 278 278 278 277 276 276 276 276 275 275 274 273 273 273 272 272 273 273 273 273 273 273 272 272 272 271 271 270 270 272 273 272 273 273 273 272 273 272 272 273 273 274 272 273 271 271 270 270 273 275 276 277 278 279 279 279 281 282 282 284 284 284 284 283 283 282 282 282
281 281 280 281 280 280 280 280 280 280 280 280 280 279 279 278 278 278 278 277 276 276 276 275 275 275 274 273 273 273 273 272 272 272 272 272 272 272 272 272 272 272 273 271 270 270 269 272 271 273 272 274 271 273 271 272 272 272 271 272 272 271 270 270 269 270 274 274 276 276 277 277 277 278 278 280 281 280 280 280 280 280 280 280 280
281 280 280 280 280 280 280 280 280 279 279 279 279 279 278 278 277 277 277 276 276 275 274 274 274 274 273 273 272 273 273 272 272 272 272 272 272 272 272 272 272 272 272 272 270 269 269 270 272 270 272 272 272 271 272 272 271 271 270 271 270 270 270 270 269 269 272 274 275 275 275 276 275 277 277 278 278 278 279 279 279 279 279 279 279
279 280 280 280 280 279 279 279 279 279 279 279 279 278 278 277 277 276 276 276 276 275 274 274 273 273 273 272 272 273 273 272 272 272 272 272 272 272 272 272 272 272 272 272 272 270 270 269 270 271 272 271 271 271 272 271 270 270 270 270 270 269 269 269 269 268 270 273 273 273 273 274 274 275 276 276 277 277 278 277 277 277 277 277 278
279 279 279 279 279 279 279 278 278 278 278 278 278 278 278 277 276 276 275 275 274 274 274 274 275 273 273 273 273 272 272 272 272 271 272 272 272 272 272 272 272 273 273 272 272 272 270 269 270 272 271 271 271 270 271 269 269 269 269 269 268 268 268 269 269 269 270 271 271 271 271 272 272 273 274 275 276 276 276 276 276 276 275 276 276
279 279 278 278 278 278 278 278 278 278 278 278 277 276 276 276 275 275 275 274 274 274 274 274 274 273 273 273 273 272 272 272 272 272 272 272 272 272 272 272 272 272 271 271 272 271 271 270 270 269 270 269 268 269 270 269 268 267 267 267 267 267 267 267 267 268 268 267 267 267 268 269 270 271 272 273 274 274 274 274 274 273 274 275 275
278 278 278 278 278 278 278 278 277 277 276 276 275 275 275 275 275 274 274 274 274 274 274 274 273 273 273 273 273 273 272 272 272 272 272 272 272 272 272 272 272 271 271 271 271 271 271 270 269 269 268 269 269 267 269 269 268 267 265 264 264 266 267 266 265 266 267 266 267 269 268 267 269 267 270 271 271 271 272 272 272 271 272 274 275
277 277 277 277 277 277 277 276 276 276 275 275 275 275 275 275 274 274 274 274 273 273 273 273 273 273 273 273 273 273 273 273 273 272 272 272 273 272 272 272 272 271 271 271 271 270 270 269 268 267 268 267 268 269 269 267 266 265 266 264 263 263 264 265 265 265 265 265 263 263 265 265 265 265 267 267 268 269 270 269 269 270 271 273 275
277 277 277 277 276 276 276 276 276 276 275 275 275 275 274 274 274 274 274 274 273 273 273 273 273 273 273 273 273 272 275 276 276 276 275 275 272 271 271 272 272 271 271 271 271 270 269 268 267 268 267 266 267 267 265 264 264 263 265 265 263 264 264 263 264 265 265 263 262 262 261 262 261 261 262 261 262 265 264 267 267 268 271 273 275
277 276 276 276 275 275 275 275 275 275 275 274 277 278 278 275 274 274 274 273 273 273 273 272 272 272 272 272 274 276 277 277 277 277 278 277 276 274 272 272 272 271 270 270 270 269 268 266 266 266 265 265 266 265 264 265 265 265 264 264 262 263 263 262 262 263 264 261 260 259 260 262 261 260 260 260 261 262 262 262 262 266 270 273 274
276 276 275 275 275 275 274 274 274 274 274 275 279 281 280 280 275 274 274 273 273 273 273 272 272 272 272 272 273 276 277 277 278 278 278 278 277 277 277 276 275 272 271 270 269 268 267 266 266 266 265 265 266 265 264 264 264 264 263 263 262 262 260 258 257 260 264 260 259 258 258 261 260 258 259 260 260 261 261 261 268 270 271 272 274
275 275 275 274 274 274 274 274 274 274 274 277 281 282 282 281 278 275 274 273 273 273 273 272 272 272 272 272 272 274 274 275 275 276 278 278 278 277 277 277 276 276 275 271 269 268 267 266 266 266 265 264 263 264 263 263 263 264 264 263 262 260 259 258 258 257 261 261 258 257 257 260 260 259 258 259 260 260 261 265 268 270 271 272 273
275 274 274 274 274 274 273 273 273 273 273 278 281 282 282 282 280 277 274 274 273 273 273 273 272 272 272 272 271 272 273 277 276 273 274 275 277 277 277 277 277 276 275 275 273 270 269 267 265 265 265 264 262 263 264 264 266 263 263 262 261 259 259 258 258 258 259 260 258 256 255 257 259 258 257 259 259 260 260 263 267 270 271 272 272
274 274 274 274 274 273 273 273 273 273 273 278 282 283 283 282 281 278 274 274 274 274 273 273 272 272 271 271 271 271 272 274 272 272 272 272 273 273 274 274 274 274 274 274 273 273 271 268 267 264 265 265 261 263 265 266 264 263 262 261 259 258 258 257 258 258 259 260 256 255 255 257 258 257 256 258 259 259 259 262 268 269 270 270 271
274 274 274 273 273 273 273 273 272 272 273 278 282 283 283 283 282 279 274 274 274 273 273 273 273 272 272 272 272 271 272 272 271 272 271 271 272 272 271 270 268 267 267 268 270 269 268 267 267 265 264 263 265 266 266 266 266 265 262 259 258 258 258 258 257 258 258 260 257 256 253 256 258 256 256 257 258 257 258 261 264 267 268 269 270
274 274 274 274 273 273 273 273 272 271 272 278 281 283 283 283 283 278 274 273 273 272 272 273 273 273 272 272 271 271 271 271 273 276 274 272 272 271 269 268 266 266 266 270 272 271 269 267 266 265 265 267 268 267 267 267 266 262 260 258 257 257 254 252 253 256 256 258 257 256 254 254 257 255 255 257 257 256 256 257 262 265 267 268 269
274 274 274 274 274 273 273 272 272 272 272 277 281 283 283 284 282 276 274 273 273 272 272 273 273 273 272 272 272 272 272 271 275 277 277 275 272 271 269 267 266 266 267 270 273 273 272 271 271 270 270 269 268 268 267 268 266 261 257 251 252 256 251 250 251 253 254 255 256 257 255 253 256 255 254 255 254 254 255 256 258 262 265 267 267
274 274 274 274 274 273 273 272 273 272 272 275 280 283 284 284 282 276 274 273 272 272 272 273 273 273 273 274 273 272 272 271 276 278 278 275 271 270 268 267 265 265 267 268 269 270 271 271 270 269 268 267 266 266 266 266 265 262 256 250 256 255 250 251 248 251 253 254 255 258 253 253 254 254 252 253 253 253 256 257 258 258 261 262 264
274 274 274 273 273 274 274 273 274 273 273 274 280 282 283 284 282 276 274 273 272 272 272 272 273 272 273 274 274 273 272 273 277 278 279 276 271 271 269 267 267 266 266 266 265 263 262 261 260 260 261 261 260 259 261 264 263 261 259 257 257 254 248 249 249 248 248 249 256 258 253 252 252 252 251 248 249 252 254 253 255 255 255 255 256
Wind_Speed
5 5 5 5 4 4 5 4 3 4 3 5 4 6 6 5 6 6 7 8 8 8 8 9 8 8 8 8 8 8 7 7 7 6 7 8 9 13 22 23 22 22 21 21 21 20 20 20 20 21 21 22 22 22 22 21 21 21 21 22 21 22 21 21 21 20 20 22 22 21 21 21 20 20 21 21 22 22 22 22 22 22 23 23 23
6 4 6 5 5 4 5 4 3 2 4 7 4 5 6 6 7 7 8 8 9 8 9 9 9 8 8 7 7 8 7 7 7 7 7 8 8 10 21 21 22 21 20 19 22 21 20 20 20 20 20 20 20 20 20 20 19 19 19 21 20 20 21 20 19 19 20 20 20 20 20 20 21 21 21 21 21 21 22 22 22 22 22 22 22
6 7 5 5 4 5 5 4 5 4 4 6 4 6 6 6 7 8 8 9 8 7 8 9 9 9 7 7 7 7 7 7 7 6 7 8 8 8 12 22 22 23 23 23 22 21 20 19 20 19 19 19 19 19 19 19 19 19 19 20 20 20 19 19 19 20 19 19 19 19 20 21 21 21 21 20 20 20 20 20 21 20 21 21 22
5 6 7 6 5 5 4 4 5 4 4 5 6 5 7 7 8 8 9 9 9 8 7 8 8 7 6 8 7 8 7 6 7 8 8 8 8 8 9 10 19 23 23 24 22 22 20 19 19 19 19 19 19 18 18 18 18 18 18 18 19 19 19 19 19 19 18 19 19 19 20 19 19 19 20 19 19 19 20 20 20 20 20 20 22
4 6 6 6 6 6 5 4 4 4 5 7 8 7 8 9 8 8 9 9 10 9 8 8 8 7 8 8 7 8 7 7 7 8 8 8 8 8 8 9 9 16 22 22 22 22 22 22 20 18 18 19 18 18 17 18 18 18 18 18 18 18 18 18 18 18 18 18 18 19 19 18 18 19 19 19 19 19 20 20 20 19 20 21 21
6 5 5 6 6 5 5 4 4 4 5 6 7 6 8 9 8 9 8 9 10 9 7 9 8 7 8 7 7 7 6 8 8 7 7 8 7 8 8 8 8 8 9 19 22 21 23 23 22 21 20 19 18 18 17 17 17 17 17 17 17 17 18 18 18 18 18 18 18 18 18 18 18 18 19 19 19 19 19 20 19 19 20 20 19
5 6 6 6 7 6 5 4 4 3 5 5 8 6 8 9 8 11 9 9 9 8 9 9 9 9 8 7 8 7 7 8 7 8 8 7 8 8 8 7 7 7 8 7 14 21 22 22 23 23 22 20 19 17 17 17 17 16 17 16 16 17 17 17 17 17 17 17 18 18 18 18 18 19 19 19 19 19 20 19 19 20 20 21 21
5 5 7 5 6 6 5 4 4 4 5 5 7 9 8 8 6 9 12 9 10 9 8 10 9 10 8 7 7 7 7 7 8 8 6 7 8 8 7 7 7 7 8 8 7 12 22 21 22 22 22 22 20 18 17 17 17 17 16 15 16 17 17 17 17 17 17 18 18 18 18 19 19 19 20 19 19 19 19 19 20 20 20 21 21
5 6 5 6 6 6 4 4 4 5 6 6 7 6 9 9 7 5 10 11 11 11 9 9 10 9 8 8 7 7 7 7 7 6 6 8 7 7 7 8 7 9 7 7 7 7 15 21 21 22 22 21 21 20 18 17 17 17 16 16 17 16 17 16 16 17 18 18 18 18 18 19 19 20 20 19 19 19 20 20 20 20 20 20 21
5 4 5 5 6 6 6 5 5 5 6 6 6 5 6 10 10 6 7 11 10 11 11 9 9 9 9 9 8 7 7 7 6 6 7 8 7 7 6 6 7 7 7 7 7 7 7 13 19 19 21 21 21 21 20 18 18 17 17 16 16 16 17 16 17 17 17 18 18 18 18 18 19 19 19 19 19 20 20 21 21 20 21 21 22
5 5 6 5 6 6 6 5 5 6 7 8 7 6 7 8 13 10 7 7 10 10 11 11 10 9 9 9 8 8 7 6 6 6 6 6 7 6 6 7 6 7 7 7 7 7 8 7 7 8 11 21 20 21 20 20 19 18 18 17 17 17 16 17 17 18 18 18 18 18 19 19 19 19 20 20 20 20 21 21 21 21 22 23 23
5 5 5 4 6 5 7 5 5 6 8 9 8 7 10 12 11 14 13 10 8 10 10 13 11 11 10 9 8 7 8 7 7 6 6 6 6 5 7 6 6 6 7 6 7 7 7 7 7 7 7 13 20 19 20 20 19 19 19 18 18 17 17 17 18 18 18 18 18 18 20 20 19 19 20 20 20 21 21 21 22 22 22 23 23
5 5 5 5 5 5 6 5 5 5 7 8 8 9 8 10 10 9 15 13 8 8 8 11 14 10 8 9 8 7 7 7 7 6 6 5 5 6 5 6 6 6 5 6 7 7 6 7 7 7 7 6 9 16 18 19 19 18 19 18 18 18 17 17 18 18 19 18 17 19 19 18 19 20 20 21 21 21 22 22 22 22 23 23 22
6 5 5 5 6 5 4 5 5 6 6 7 8 9 10 10 11 9 3 11 9 8 9 6 4 9 9 6 6 6 6 7 7 6 5 5 5 5 5 6 6 5 5 7 7 7 6 6 6 7 7 7 7 7 8 9 12 18 18 19 19 18 18 18 18 18 18 17 17 19 18 19 19 20 20 21 21 21 22 22 22 23 24 23 23
5 5 5 4 5 5 4 4 4 5 8 8 8 9 9 11 10 13 9 3 6 0 1 2 6 6 7 8 3 3 1 3 4 5 5 5 4 5 5 6 6 5 6 6 6 6 6 6 7 7 7 7 7 7 7 9 13 18 19 20 19 19 18 18 18 18 17 18 19 19 18 19 19 19 20 21 21 21 22 22 23 23 23 24 25
5 4 4 3 4 5 4 4 5 2 7 10 8 8 7 7 6 8 13 11 4 1 2 2 5 10 4 1 4 4 4 2 2 3 4 6 5 5 4 5 5 5 6 7 6 6 6 6 7 7 7 7 7 7 7 7 15 16 19 19 19 19 18 18 17 18 18 18 18 18 19 19 19 20 20 20 21 22 22 23 23 24 25 25 24
5 5 5 4 4 4 4 4 4 3 4 8 9 8 6 5 7 8 9 12 8 3 1 1 4 4 4 6 4 1 3 5 6 3 3 3 5 5 5 5 5 5 5 6 5 6 6 6 6 6 6 7 7 7 6 7 7 6 9 16 19 18 18 17 17 17 17 17 18 18 19 19 19 20 20 21 23 24 25 23 23 24 25 25 26
5 6 6 5 5 5 5 5 4 3 3 5 6 6 6 7 4 3 3 1 9 8 4 1 3 3 3 2 1 3 7 7 4 3 2 2 2 3 5 5 4 5 5 5 6 6 5 6 6 6 6 7 6 6 6 7 8 6 6 11 19 18 18 18 17 17 17 19 19 19 19 20 20 21 22 23 24 23 22 23 23 24 25 26 27
5 5 6 6 5 5 5 5 5 4 3 4 6 5 4 4 3 4 3 4 4 6 8 6 3 4 4 3 3 2 7 9 4 6 3 2 1 3 4 4 4 5 5 5 5 5 5 5 6 6 6 6 6 6 6 7 11 12 17 19 18 19 18 18 17 18 20 20 19 19 19 20 21 22 24 23 23 23 23 24 25 25 27 27 28
7 5 5 6 7 7 6 5 5 4 4 4 6 5 5 4 4 5 5 4 3 7 7 5 7 3 1 3 5 6 6 6 3 6 5 7 3 1 1 3 4 4 4 5 5 5 5 5 6 5 5 6 6 6 6 6 6 7 9 19 19 19 19 18 18 19 19 19 19 19 20 21 22 23 22 23 23 24 26 26 26 26 26 27 28
5 6 5 5 5 5 6 7 6 5 4 3 4 4 4 6 5 5 4 4 3 5 7 6 4 5 4 4 4 5 4 4 3 3 4 5 3 5 4 1 3 4 4 4 4 5 5 5 6 6 6 6 6 6 7 6 6 6 11 19 19 19 19 19 19 19 19 19 19 20 21 22 23 22 23 24 25 26 26 25 25 26 27 27 28
5 6 6 5 5 5 6 6 5 5 5 5 4 5 5 5 3 4 4 6 3 5 7 5 4 3 2 3 4 3 4 3 3 4 4 3 7 7 6 6 4 2 3 4 5 4 5 5 6 6 6 6 6 6 7 7 6 6 11 19 18 19 19 18 19 19 19 19 20 21 22 23 23 24 24 25 26 25 25 25 25 26 28 27 28
5 5 6 6 6 5 5 6 5 5 6 6 5 4 4 4 4 5 5 5 3 5 6 5 4 4 4 3 4 2 3 4 5 2 4 4 7 6 3 2 3 5 2 3 4 4 5 5 5 6 6 6 6 6 6 6 8 11 16 17 18 19 19 19 20 20 19 20 21 22 24 24 24 25 25 25 25 25 25 26 27 28 27 28 30
5 6 6 6 5 5 5 6 5 5 5 4 5 4 4 4 3 4 5 5 5 5 5 6 6 5 5 4 4 4 4 4 2 3 5 5 7 8 6 3 3 2 2 3 3 4 4 5 5 6 6 5 5 5 6 6 6 16 11 17 18 20 19 20 20 20 20 21 23 24 24 25 25 26 25 24 24 25 26 27 29 29 30 29 28
7 7 6 6 6 7 7 7 6 6 6 6 6 5 4 4 4 5 5 5 4 4 4 5 5 5 5 5 5 5 5 3 3 5 4 5 9 8 2 2 4 4 0 2 2 2 3 4 4 5 5 5 5 5 5 6 5 12 14 11 19 19 19 20 20 20 21 23 24 25 25 24 25 25 25 25 25 26 27 27 27 27 27 27 28
8 5 6 7 6 6 7 7 7 7 6 6 6 5 5 5 5 5 6 5 5 6 7 7 7 7 5 6 6 5 4 3 3 4 4 5 5 8 7 3 3 3 1 1 1 3 2 4 3 5 6 6 6 5 5 6 5 13 16 10 13 19 19 19 20 20 22 24 24 24 24 24 24 24 24 25 26 27 28 27 27 27 27 26 27
6 6 6 6 6 6 6 6 7 8 7 7 6 5 5 6 6 6 6 5 6 7 6 7 7 8 7 6 6 6 5 4 4 5 4 4 6 6 7 8 3 2 2 1 2 3 2 2 3 5 6 5 4 4 4 5 6 14 13 7 7 17 17 18 18 20 22 23 23 23 23 23 24 24 24 25 26 27 27 28 28 28 27 27 27
6 6 6 6 7 7 7 6 6 6 6 6 6 6 6 6 6 6 8 3 7 8 7 8 8 8 8 6 7 6 4 4 5 5 5 5 5 4 4 5 8 3 2 2 1 1 1 3 2 5 6 4 4 3 6 7 5 12 10 5 6 7 15 17 19 21 23 22 22 22 23 24 24 24 25 26 27 28 27 27 27 27 27 27 27
6 6 6 5 5 6 7 7 5 5 5 5 5 5 5 6 6 7 8 7 7 8 6 7 7 7 6 7 6 6 5 4 5 5 5 5 5 5 4 5 3 6 4 3 3 3 1 2 2 2 6 3 3 4 3 5 7 9 4 5 6 5 13 17 20 22 22 22 22 22 23 23 24 24 25 27 28 28 27 27 26 26 27 28 28
6 6 5 6 5 6 5 5 5 5 5 5 4 4 5 5 5 5 6 7 8 6 6 7 7 6 7 6 6 6 5 6 6 5 5 5 5 5 5 4 2 4 4 4 3 2 1 1 2 1 2 3 3 4 2 4 9 7 4 4 6 6 15 17 20 22 21 21 21 22 23 23 23 23 25 27 27 27 27 26 26 26 27 27 28
6 7 7 5 5 5 5 6 5 5 5 5 5 5 5 6 5 6 5 6 7 7 6 6 5 6 7 8 6 6 5 6 5 5 4 5 5 5 5 5 5 4 4 4 5 1 4 2 2 1 0 1 1 1 2 2 6 6 3 5 5 12 14 13 20 21 20 21 21 21 21 22 22 23 26 26 26 26 26 26 26 27 27 28 28
5 6 5 6 7 7 5 5 6 5 6 5 5 6 5 4 5 6 6 6 7 7 6 5 5 6 7 7 7 6 5 5 5 5 5 5 5 5 5 6 5 4 4 3 3 5 2 3 1 1 1 1 2 2 1 0 2 8 3 5 6 10 7 7 15 19 19 20 20 20 21 21 21 24 26 26 26 26 25 25 26 27 27 27 27
6 7 7 7 7 6 7 6 6 6 6 6 5 5 5 6 4 6 6 6 8 6 7 7 6 7 7 8 7 6 5 7 5 5 5 5 5 5 5 5 5 4 4 3 3 2 1 3 3 1 2 1 3 1 2 2 2 3 6 4 5 5 6 7 8 15 19 20 20 20 20 20 21 24 25 26 25 25 24 25 26 26 26 26 26
10 11 7 9 7 7 6 7 6 6 5 6 5 5 6 7 6 5 5 7 7 6 6 8 7 6 7 9 7 6 5 7 6 6 5 5 5 5 4 5 5 4 2 3 2 2 2 0 3 1 0 0 1 1 5 6 6 6 7 7 4 5 6 7 7 8 18 18 19 19 19 19 21 24 25 25 24 24 24 25 25 25 25 26 26
8 10 10 11 8 7 6 6 7 6 6 6 5 5 5 7 7 6 6 8 8 10 9 8 8 8 8 8 7 6 6 7 6 5 5 5 4 5 4 3 4 3 2 2 2 1 1 1 1 2 1 3 3 5 6 5 5 6 8 8 7 7 7 9 6 7 14 18 18 18 18 19 22 24 25 25 24 23 24 25 25 25 25 25 26
11 10 11 9 8 7 7 7 6 6 6 6 5 5 6 7 7 9 8 8 8 8 9 9 9 8 9 9 7 7 7 8 6 6 5 5 5 4 4 3 3 3 2 2 1 3 0 1 1 1 3 3 4 4 4 5 6 7 7 7 7 9 9 8 6 5 10 16 17 17 17 19 23 24 24 24 23 23 24 25 24 25 25 26 26
10 10 7 6 7 7 7 8 7 7 6 6 6 6 8 8 9 9 8 7 7 8 8 8 8 9 9 9 9 8 7 9 6 6 5 6 5 5 4 3 4 3 2 2 0 1 2 1 1 1 3 3 3 2 4 4 5 5 6 7 8 8 8 7 5 6 11 14 15 15 15 19 22 23 23 22 22 23 24 25 25 25 26 26 26
8 6 9 8 7 7 7 7 6 6 6 9 8 9 8 7 7 7 7 7 7 7 7 7 8 7 8 8 8 8 8 9 8 7 6 6 5 5 5 4 4 3 2 2 2 2 2 1 1 2 2 3 3 2 4 6 6 6 7 7 7 6 7 7 6 6 5 6 6 7 10 15 19 22 21 22 22 23 23 24 25 25 25 25 25
8 9 7 9 6 7 8 8 10 10 8 7 8 8 8 8 8 8 8 8 7 7 6 7 7 7 7 8 8 8 8 8 8 8 7 6 6 6 5 5 4 4 3 3 3 3 2 2 2 2 1 3 2 3 4 6 6 6 6 8 8 6 6 7 8 5 5 6 9 14 14 15 19 15 18 20 21 21 23 24 24 25 25 25 26
8 9 11 9 8 7 8 9 8 8 8 8 7 8 8 9 9 8 8 9 8 7 7 6 6 7 7 7 8 7 7 7 7 6 7 7 6 6 5 5 5 4 4 4 3 3 3 3 2 1 2 1 3 3 4 6 5 4 4 5 8 8 8 7 7 8 6 6 7 9 9 11 13 14 16 18 19 22 24 23 23 24 24 25 28
5 6 7 9 9 8 7 7 7 8 9 9 8 9 9 9 8 9 9 9 9 9 8 7 7 7 7 7 7 6 6 9 11 9 8 8 7 7 5 4 5 4 4 4 4 4 3 3 1 1 1 2 3 3 4 4 4 4 5 6 7 7 8 8 7 6 4 4 7 9 8 7 10 9 8 9 10 17 17 21 19 22 24 28 28
10 8 7 6 6 8 9 8 7 7 8 7 10 16 13 10 10 8 8 9 9 9 10 9 8 7 7 6 6 11 13 14 13 13 14 13 11 8 6 5 5 5 4 3 4 4 3 3 1 1 1 2 3 4 3 3 3 4 5 6 7 7 7 7 7 4 1 3 8 9 8 5 7 9 7 8 8 10 10 12 11 18 25 28 27
11 11 8 9 7 8 9 8 9 9 8 8 17 19 19 18 11 10 10 10 9 10 10 10 10 9 7 7 6 10 11 12 11 15 14 13 12 12 13 10 7 5 4 5 4 4 3 3 2 1 1 1 2 4 2 2 3 4 5 5 6 6 5 8 9 4 2 6 7 9 8 4 6 9 8 7 7 8 9 10 22 27 26 25 26
7 7 9 9 8 7 6 7 11 9 9 12 20 21 21 21 16 11 10 10 10 10 9 10 9 9 9 8 7 6 6 7 7 8 11 13 13 12 11 9 8 9 7 5 4 4 4 3 2 2 3 2 2 2 1 2 3 4 5 5 5 3 5 6 6 6 4 7 8 8 10 4 4 7 9 9 8 7 9 17 25 25 24 24 24
8 9 8 8 9 8 9 9 11 10 9 16 21 23 22 22 21 15 9 8 9 9 9 10 10 9 9 9 8 6 6 12 7 6 7 8 11 11 10 10 10 10 9 8 8 5 3 4 4 1 3 2 3 0 0 3 4 5 5 5 2 2 4 6 7 7 7 7 6 7 9 7 2 6 9 9 8 8 10 15 23 24 23 22 22
9 10 8 11 10 9 10 8 10 9 10 16 23 23 22 22 22 15 6 10 8 8 10 10 9 10 10 10 9 8 7 8 7 8 7 6 5 5 5 6 7 7 7 7 6 6 6 4 4 4 3 5 2 1 2 3 4 5 5 3 1 3 5 7 8 9 7 4 4 8 6 3 0 7 10 8 7 9 8 15 24 23 21 20 20
11 11 11 10 10 8 8 8 10 11 10 18 22 23 22 22 21 15 6 5 7 8 8 8 9 9 9 9 9 10 9 8 7 9 8 7 6 6 7 7 5 3 2 3 4 5 5 4 5 5 4 3 4 2 2 3 5 3 2 2 2 3 5 7 8 6 4 1 4 4 5 7 4 6 8 10 10 10 8 13 19 20 19 19 22
5 5 5 6 10 11 11 10 11 11 10 20 22 22 22 21 22 10 9 9 8 7 8 6 6 7 8 9 9 9 9 8 12 17 12 8 7 8 7 6 5 3 2 5 7 7 7 6 5 5 5 4 4 3 3 3 2 4 3 4 1 0 2 4 6 5 4 3 5 3 6 7 5 8 9 9 9 11 9 7 14 16 18 21 23
9 10 10 9 7 8 9 9 9 8 10 17 22 23 23 24 18 8 9 8 7 7 7 7 7 7 8 9 8 7 9 9 14 19 18 15 9 9 9 8 6 5 4 3 7 9 9 9 9 9 7 6 4 2 1 2 3 4 3 3 1 1 2 4 4 4 5 4 3 3 6 10 7 9 11 8 9 10 8 7 6 10 17 23 25
10 9 7 6 7 7 10 10 11 8 8 15 23 22 24 25 16 10 9 9 7 7 7 7 7 7 8 15 11 9 9 9 18 19 19 15 9 9 9 9 7 6 5 4 6 7 11 10 10 9 8 6 6 4 2 2 3 5 5 1 1 2 1 0 3 3 7 4 2 5 6 7 9 8 10 7 8 6 6 3 2 7 18 18 22
7 7 9 9 8 10 10 11 14 12 8 13 22 22 24 24 16 9 10 9 9 8 8 8 7 6 8 11 16 13 11 12 20 20 21 16 10 10 10 8 9 9 8 9 8 8 5 4 3 4 4 6 5 3 2 3 3 3 2 3 1 2 1 1 1 4 5 3 1 8 6 7 9 7 9 13 8 5 6 6 9 6 5 7 9
Wind_Direction
109 102 97 88 86 80 71 70 66 54 135 59 87 100 91 90 93 90 91 91 88 87 86 81 75 69 74 74 63 57 45 42 37 27 30 35 37 35 62 66 68 69 71 74 73 71 66 65 65 63 60 59 57 55 53 52 51 51 52 50 46 44 42 42 40 39 40 37 35 34 33 29 28 26 26 25 24 21 20 19 19 16 15 13 13
118 108 108 101 98 91 84 67 73 48 63 82 59 98 108 102 99 96 91 88 84 82 87 84 78 74 66 66 62 60 51 49 43 37 40 40 38 29 60 67 70 68 67 71 68 69 67 66 65 65 64 61 57 56 54 51 50 50 50 50 47 43 42 39 37 38 39 36 34 31 29 27 26 25 24 22 21 19 18 18 16 15 13 12 10
114 117 103 110 100 98 96 98 82 57 77 94 78 85 78 94 101 104 100 95 87 82 85 85 80 73 66 62 66 62 54 52 47 39 42 42 41 42 43 64 70 70 70 70 68 68 67 67 67 65 64 63 59 56 55 52 49 47 47 50 47 43 42 37 35 35 36 33 30 26 28 26 24 22 20 19 18 16 15 15 14 13 11 8 5
112 124 125 119 109 99 98 94 93 83 85 100 95 88 91 83 86 92 95 95 92 82 75 83 76 72 64 61 59 65 59 53 56 53 49 48 48 44 47 39 59 71 70 71 69 68 66 67 67 67 62 59 57 55 54 51 48 46 45 44 45 44 40 37 35 34 32 31 28 25 26 24 22 20 18 16 15 13 12 12 12 10 8 5 1
113 124 125 118 116 109 95 88 98 105 101 103 104 105 100 97 87 91 91 92 89 83 82 72 77 68 66 61 66 64 63 62 60 53 52 51 49 51 50 48 41 51 66 67 66 67 64 60 61 62 65 61 56 51 52 50 48 44 43 43 43 41 39 36 33 32 30 29 26 24 24 21 19 18 17 15 12 10 9 9 9 7 5 3 2
125 116 117 116 107 102 107 98 96 108 109 111 105 111 108 104 106 96 88 91 90 89 86 78 74 73 70 67 65 66 64 67 60 59 55 54 50 52 50 50 47 45 38 61 65 63 62 60 61 60 56 58 55 52 49 50 46 46 42 40 40 38 36 35 31 30 28 26 25 22 21 19 17 16 15 13 11 8 8 8 6 3 1 0 359
110 122 117 118 116 110 100 107 105 107 106 105 113 103 105 107 116 104 97 89 91 88 85 87 84 75 72 69 71 69 64 67 64 60 58 56 57 52 52 48 51 47 46 32 53 60 60 60 58 56 55 55 53 53 50 48 46 43 43 39 38 36 34 33 32 28 27 25 23 20 19 17 15 14 13 10 9 7 7 4 3 360 358 357 356
83 122 120 117 118 115 116 111 111 110 104 107 110 112 110 102 89 115 112 100 99 91 88 91 85 82 77 73 74 70 71 64 62 63 57 62 58 55 50 50 49 51 49 46 39 49 57 57 57 54 52 50 50 48 50 48 46 43 41 38 38 37 35 32 30 28 25 24 21 19 18 15 13 12 10 7 5 5 4 2 1 0 358 357 356
90 88 100 118 116 114 103 106 113 112 111 104 102 113 119 108 88 78 110 117 106 104 94 91 90 83 78 75 66 71 66 66 65 66 61 61 58 55 54 51 50 54 50 54 49 38 47 51 50 50 48 46 45 46 46 47 44 41 40 36 35 35 33 30 27 27 25 24 20 18 16 14 13 11 9 5 3 3 2 1 359 358 356 353 351
99 99 95 105 111 116 114 108 112 113 108 102 102 104 107 114 104 86 103 114 113 111 105 97 91 87 77 69 65 62 61 60 63 59 63 64 59 55 53 52 53 50 53 54 50 50 44 42 42 36 40 42 40 41 42 43 41 40 36 36 34 31 30 28 25 24 23 22 19 16 12 12 12 11 7 3 3 3 1 359 357 353 353 352 352
99 104 111 111 116 116 115 118 120 121 115 109 109 110 108 109 115 105 82 88 114 110 112 106 95 87 78 68 66 60 57 59 53 58 56 60 66 66 60 52 56 52 54 52 51 50 48 45 41 36 25 34 35 35 35 35 37 36 33 32 30 29 24 26 24 22 21 21 17 13 12 14 13 8 5 3 3 360 358 357 353 352 352 354 353
92 90 102 101 117 117 118 118 124 131 126 123 128 131 128 120 116 118 111 99 96 116 119 110 94 85 80 72 63 64 60 58 56 52 49 49 55 63 63 61 58 57 56 56 58 53 52 49 46 39 35 26 30 30 30 31 30 33 32 28 26 24 22 22 24 20 21 20 14 12 15 15 8 7 4 1 0 359 356 355 353 352 352 350 347
99 100 102 103 100 110 111 108 101 122 125 127 134 131 128 124 121 119 125 119 117 130 129 120 112 86 77 76 70 59 66 59 56 50 47 47 52 60 63 67 63 63 59 65 60 57 56 51 49 46 38 35 23 24 26 26 28 29 31 26 24 20 21 19 22 20 21 19 12 14 15 10 7 5 2 360 358 356 354 353 352 350 348 348 348
109 108 110 114 118 113 99 108 118 115 113 119 127 130 132 131 131 111 88 127 133 156 159 124 79 135 137 116 79 78 68 62 54 48 42 44 47 59 57 71 72 72 70 67 60 58 52 52 50 46 43 38 30 20 14 12 17 28 29 26 21 19 20 17 19 16 21 15 12 15 11 9 5 2 359 357 358 356 353 351 348 350 350 346 342
81 100 109 108 110 111 111 113 115 128 122 123 131 136 144 144 147 136 125 43 104 67 289 334 126 118 114 106 159 116 110 74 62 49 44 39 42 52 56 65 69 75 81 76 68 59 56 50 50 46 40 36 31 24 17 16 23 24 26 25 20 20 18 16 17 16 15 16 17 12 8 5 1 359 358 358 357 353 351 350 348 347 345 343 342
86 87 89 90 109 114 118 108 104 91 138 133 137 138 145 143 132 136 132 130 143 132 359 294 154 138 141 113 160 128 120 173 111 69 46 44 37 50 49 54 66 71 77 75 74 70 59 55 52 47 41 37 33 26 17 23 21 18 21 22 19 19 17 14 14 12 15 16 11 8 7 2 358 357 358 355 353 352 351 351 347 344 344 340 339
91 90 96 86 82 89 96 90 90 85 69 128 142 148 146 140 145 145 158 144 150 149 88 135 160 353 147 129 84 298 208 130 134 82 22 34 32 34 56 54 63 68 71 79 80 73 71 61 55 48 42 37 33 28 21 18 15 348 357 15 19 18 15 13 10 13 12 14 11 7 3 360 357 356 357 354 354 357 356 348 343 339 343 341 339
84 85 89 86 75 72 69 84 80 59 54 71 79 94 126 135 139 133 125 99 148 137 128 36 37 49 22 32 126 169 145 166 131 149 48 46 29 44 46 48 63 77 73 79 77 73 69 72 61 54 44 37 30 30 26 15 20 352 9 13 19 16 14 11 9 11 9 13 9 6 1 358 357 356 357 356 356 350 344 345 342 341 340 338 339
75 71 75 83 79 75 66 63 69 69 68 80 99 93 61 63 70 93 81 104 142 137 156 143 105 38 38 55 79 13 129 136 181 104 142 175 98 41 38 40 52 70 76 76 81 79 69 72 67 61 48 39 31 28 26 19 19 16 19 19 17 15 12 11 6 9 11 10 6 2 2 358 359 358 357 352 348 348 345 344 346 343 340 338 337
87 71 77 88 90 79 76 79 76 59 71 60 100 103 97 67 70 85 99 102 129 150 142 170 164 147 50 71 69 57 45 37 96 154 142 149 174 22 123 38 58 62 76 87 83 82 82 68 66 58 54 39 35 29 25 16 7 6 8 16 16 13 11 9 7 8 8 7 3 2 3 2 359 356 352 349 348 347 348 347 343 342 340 340 336
84 90 73 82 91 90 94 102 100 94 93 93 87 92 98 107 91 90 100 75 82 128 142 154 130 145 146 78 65 64 59 57 82 89 136 131 141 173 153 127 90 60 60 76 79 83 79 74 67 59 50 40 33 29 21 12 7 14 12 13 14 13 10 7 7 6 7 4 3 4 3 359 355 352 351 352 351 348 347 344 341 342 342 341 338
103 99 98 88 90 101 105 96 94 98 101 94 84 94 92 87 89 110 114 105 71 102 118 104 92 95 67 142 124 113 70 47 47 89 57 82 159 176 167 160 142 97 72 86 94 89 83 76 70 57 49 41 33 27 21 11 3 19 12 11 10 12 9 8 6 5 5 4 5 6 1 355 352 352 353 352 349 346 344 342 343 343 341 338 335
109 110 105 112 111 110 107 106 104 112 111 110 111 108 104 103 99 89 75 83 87 91 91 83 93 85 68 54 87 102 156 163 178 177 140 127 92 103 108 108 127 124 89 114 109 88 83 73 65 60 48 40 32 26 24 12 1 23 17 8 8 10 10 8 6 5 5 4 6 2 357 353 353 353 352 351 348 346 345 344 343 342 340 338 337
134 130 128 132 126 120 115 111 113 114 106 102 99 86 81 90 90 86 89 82 93 86 86 99 93 88 76 72 80 89 76 93 122 141 148 156 133 137 137 129 80 77 110 80 84 105 92 78 73 64 54 43 33 27 24 14 355 18 23 7 6 6 8 7 6 6 5 6 3 358 355 354 352 351 349 349 348 347 346 344 341 343 347 342 336
160 147 140 129 129 123 126 126 119 105 107 106 101 92 88 76 70 77 77 79 78 72 81 78 93 97 101 81 84 80 78 59 87 112 85 106 124 120 98 105 133 135 156 131 133 103 103 95 85 73 60 49 33 23 20 11 347 16 20 8 5 4 6 7 7 5 7 4 359 356 355 353 350 348 348 347 347 347 345 344 341 340 338 339 339
147 138 133 133 129 131 126 126 122 122 116 114 116 115 114 105 94 92 86 77 78 84 90 93 86 88 91 93 79 73 71 53 70 76 104 109 107 123 128 88 86 110 131 75 154 118 139 92 84 76 59 46 30 13 16 9 333 18 15 12 1 1 3 7 7 7 6 0 357 354 352 348 346 346 346 348 349 347 344 341 339 339 340 340 341
138 132 134 129 124 126 127 126 132 133 133 135 131 122 114 108 105 102 97 97 96 95 92 97 95 96 87 87 92 78 72 70 77 74 79 79 111 138 136 127 98 93 59 84 43 72 142 124 71 55 55 41 27 6 7 7 346 17 15 11 359 357 357 6 10 7 2 358 354 351 347 346 346 346 347 348 347 345 342 339 341 341 342 343 341
120 126 129 130 131 131 131 133 133 134 136 135 131 127 125 120 118 115 111 105 105 100 104 97 95 95 94 94 92 84 77 79 75 80 76 82 86 87 104 121 134 139 120 82 119 97 101 92 93 87 47 37 7 11 360 8 337 26 15 6 360 344 354 11 11 4 360 357 353 348 345 345 346 346 347 347 344 342 340 340 341 341 343 342 340
130 134 131 131 131 133 136 136 126 121 117 117 114 116 119 118 119 121 119 117 107 106 105 100 99 98 93 96 97 97 85 78 71 68 72 70 70 71 74 119 142 128 161 145 183 146 105 104 74 0 55 5 16 348 3 353 354 27 14 2 354 326 5 14 7 1 358 356 350 345 344 345 345 346 347 345 341 339 339 341 341 341 342 340 341
136 142 123 124 118 125 115 117 114 110 107 101 96 92 94 98 100 96 107 110 104 98 96 102 105 104 104 98 97 97 92 83 82 75 74 79 74 66 71 56 51 130 154 134 138 119 125 115 115 2 355 354 4 353 7 352 353 30 7 359 351 350 19 11 5 360 356 351 346 343 343 344 344 345 344 340 338 337 338 340 340 341 340 340 341
137 135 136 129 125 118 113 119 118 113 106 112 111 105 102 110 110 109 100 97 103 104 105 106 108 106 108 105 104 101 97 96 92 86 80 81 80 76 66 65 53 78 113 111 120 109 127 144 72 8 256 304 338 347 344 328 354 22 19 7 356 15 23 12 5 358 352 346 342 341 343 343 343 343 339 336 336 336 338 338 339 340 339 340 340
132 131 123 132 135 130 122 119 119 118 122 117 120 121 109 104 121 118 117 108 108 114 117 108 114 117 114 111 114 115 113 105 97 91 88 81 86 84 75 77 69 62 83 90 99 145 117 132 174 237 300 338 301 66 326 195 357 27 34 8 21 28 25 16 5 356 347 341 338 340 342 342 342 340 335 333 333 335 337 337 338 339 340 339 338
132 134 133 135 136 127 130 133 129 136 133 132 128 118 111 111 100 110 121 119 117 118 121 117 117 122 122 117 116 114 117 110 109 106 98 95 92 87 85 82 79 64 80 89 120 136 146 134 131 158 316 121 342 113 16 32 25 29 22 19 43 31 25 13 6 351 343 338 335 338 340 339 339 334 332 331 331 334 335 337 338 338 338 338 337
153 121 135 129 125 136 136 135 134 130 127 131 132 119 124 123 118 123 127 126 125 123 130 130 131 128 126 122 119 119 119 117 120 115 116 112 103 98 94 97 97 90 90 116 109 130 155 72 55 338 264 293 59 34 26 15 23 17 11 13 30 28 14 10 359 345 338 333 331 333 336 336 334 331 329 328 330 333 336 337 338 338 338 337 335
150 123 132 134 131 128 129 134 140 136 136 137 134 126 125 132 137 140 143 144 143 144 142 141 137 134 129 129 132 131 128 118 117 117 119 114 108 107 111 109 106 104 100 107 118 105 89 21 95 10 21 2 38 15 17 43 32 17 7 8 8 2 8 356 352 342 330 328 326 328 330 332 330 328 325 326 330 334 337 338 338 337 336 334 333
156 159 142 135 136 138 138 145 142 141 139 143 137 132 139 145 144 149 152 149 146 148 146 145 145 144 141 136 142 139 132 123 126 126 125 123 124 128 121 113 112 114 87 89 72 116 28 129 313 76 6 50 29 15 33 33 30 19 15 357 359 353 346 337 335 329 321 321 320 322 327 328 325 324 324 326 330 335 338 338 337 336 335 333 331
158 155 144 135 138 143 150 152 148 149 151 142 142 137 150 156 153 150 152 151 152 151 150 149 150 147 148 147 146 143 138 130 136 137 142 139 140 135 133 127 127 122 117 114 96 121 168 207 268 90 79 38 51 14 51 37 19 24 13 359 346 339 327 317 318 319 318 314 312 316 323 323 320 320 322 325 332 337 337 336 336 336 334 332 329
143 140 148 157 157 154 147 144 139 138 141 157 157 159 158 154 152 152 151 151 152 150 149 151 150 152 150 148 149 148 148 145 150 151 151 148 141 137 135 138 134 135 142 153 167 205 179 234 75 36 47 36 2 21 74 44 29 10 355 344 333 323 321 320 320 319 313 308 311 312 321 319 315 319 319 324 332 335 337 337 335 334 331 329 328
150 155 152 156 158 151 152 149 163 161 158 159 161 162 161 159 157 155 152 150 149 148 152 152 151 149 148 149 152 157 156 154 152 156 151 147 144 143 146 147 146 155 167 175 175 187 184 114 46 61 40 0 25 17 43 53 49 30 349 329 320 318 317 316 312 310 313 309 303 308 311 313 310 315 317 324 330 333 335 336 334 331 328 329 329
157 158 163 157 155 147 156 163 159 157 158 163 168 167 166 164 160 158 156 153 152 150 150 151 153 153 155 158 160 163 158 155 152 151 149 149 144 145 154 148 157 168 169 170 175 170 114 92 119 95 359 7 9 63 71 42 27 11 2 329 306 314 314 311 305 307 308 312 311 307 307 306 304 309 317 321 328 335 336 334 331 328 327 329 327
139 145 134 147 148 150 150 156 155 160 168 174 174 172 168 169 163 160 160 157 156 154 153 156 160 161 163 162 161 159 155 158 159 154 157 156 150 154 159 160 169 168 165 168 161 126 129 134 143 67 43 29 17 40 35 33 17 340 327 314 299 299 302 301 302 299 298 320 311 299 299 309 304 305 312 319 327 335 328 327 324 324 326 326 327
157 135 144 144 151 154 158 162 163 167 177 179 183 180 175 168 166 162 159 161 161 161 161 163 167 168 166 158 162 164 165 165 167 167 166 164 160 155 161 170 168 163 167 157 139 146 149 148 146 124 58 56 62 66 53 4 351 328 310 307 297 299 303 293 289 278 72 347 311 300 291 294 300 297 301 306 313 328 322 324 311 320 323 324 321
168 169 155 163 169 168 168 165 167 179 182 184 186 184 181 173 165 165 164 167 169 168 171 168 168 169 166 165 166 173 172 172 173 176 171 167 164 165 170 171 170 164 154 156 157 153 158 154 162 113 120 121 77 78 39 351 328 305 297 296 293 305 320 328 320 314 124 10 315 303 295 315 318 311 311 307 308 311 310 306 317 321 320 319 319
151 146 170 174 167 167 167 167 181 185 186 188 188 188 184 179 171 169 169 169 172 175 173 172 171 168 168 167 172 175 173 169 172 176 172 171 166 167 169 173 173 173 171 159 149 151 160 160 151 163 125 102 98 65 3 346 302 295 293 292 291 316 314 304 290 293 314 349 315 306 296 305 308 292 300 303 309 309 306 313 317 318 317 316 317
148 169 174 162 173 174 175 178 188 188 189 192 193 191 188 183 178 170 174 170 172 177 174 176 173 171 168 167 167 168 165 168 164 157 150 163 169 172 172 173 161 155 155 157 160 160 151 144 148 172 114 115 96 83 269 284 286 285 290 284 303 312 294 282 281 295 308 327 310 304 293 297 267 308 299 295 300 306 309 313 313 314 316 317 317
174 178 165 181 176 178 184 177 187 187 190 198 196 194 191 187 182 174 159 174 176 173 175 177 176 175 172 169 166 166 172 167 159 155 149 153 159 163 163 154 153 155 148 134 128 126 125 136 135 132 96 122 147 172 264 277 276 277 279 276 319 294 284 279 293 291 294 319 344 314 285 281 27 310 293 288 304 301 298 303 312 312 313 316 318
177 182 178 180 183 173 179 176 189 194 198 199 200 196 193 188 185 174 151 152 171 179 182 182 181 177 174 172 171 171 172 170 168 164 158 159 158 144 139 146 130 114 118 111 115 106 111 104 105 116 118 123 152 200 242 253 266 285 118 157 254 265 290 298 286 266 290 342 344 314 281 310 315 296 288 303 310 300 291 303 306 308 313 319 321
158 139 167 166 179 186 184 182 191 199 198 200 202 199 194 191 185 169 166 174 178 181 187 178 170 177 178 175 174 176 175 172 179 176 170 162 163 155 152 141 132 127 145 161 145 135 127 121 116 130 148 160 156 187 217 258 264 108 80 66 42 218 335 319 313 313 294 326 318 296 291 292 316 313 302 302 303 297 299 284 296 304 317 323 321
174 184 189 186 173 174 182 185 192 198 196 201 204 201 197 192 186 162 171 170 173 172 181 173 171 173 179 178 176 171 175 177 185 186 182 175 171 168 161 154 151 145 151 160 146 136 136 135 139 144 143 141 136 139 230 319 98 113 94 43 357 141 18 330 302 312 304 345 296 351 316 299 326 325 305 307 303 290 286 273 274 302 320 321 318
184 186 168 157 179 179 185 191 194 189 186 198 204 203 200 196 187 166 170 177 175 178 173 178 176 178 178 183 178 169 174 178 189 191 190 183 175 173 164 155 154 158 149 126 114 122 123 119 119 118 111 106 104 81 71 81 99 120 115 125 222 103 235 252 286 299 292 302 269 358 322 292 320 331 321 304 285 274 285 259 265 324 321 318 313
182 168 184 189 187 194 196 197 197 200 181 192 203 204 202 199 191 160 172 177 178 182 179 178 181 173 182 189 185 182 178 182 192 197 197 188 175 177 170 155 173 179 171 162 152 138 129 108 91 89 76 72 69 62 23 82 92 92 113 154 193 168 178 227 264 300 325 310 282 6 329 311 334 335 2 335 323 269 232 317 308 295 290 296 289